Meteo Giornale » Osservazioni meteo Repubblica Ceca » Praha-Ruzyne

ore: 15:00 - Osservazioni Meteo Praha-Ruzyne
Lat. 50° 6' N Lon. 14° 15' E Alt. 365 metri s.l.m.

sereno Europe/Prague

25 °C

Sereno

Temp. 24 Ore

14 °C

26 °C

Ovest/Sud-Ovest

24 Km/h

Dew point 10 °C

Umidità 38 %

Visibilità  10 Km

Il sole sorge alle ore 05:26

Il sole tramonta alle ore 20:52

Data e Ora Cielo e Fenomeni T °C DP °C Um. % Pres. hPa Vis. km Vento km/h
Oggi h: 15:00 sereno Sereno 25 10 38 1014 10 O/SO 24
Oggi h: 14:37 sereno Sereno 26 11 39 1014 10 O/SO 22.2
Oggi h: 14:30 sereno Sereno 24 10 41 1014 10 O/SO 24
Oggi h: 13:30 sereno Sereno 24 11 43 1014 10 O/SO 24
Oggi h: 13:00 sereno Sereno 24 11 43 1014 10 SO 25.9
Oggi h: 12:30 sereno Sereno 25 11 41 1014 10 SO 27.8
Oggi h: 12:23 nuvoloso Nuvoloso 23 11 46 1014 10 SO 27.8
Oggi h: 12:07 nuvoloso Nuvoloso 24 12 47 1015 10 O/SO 22.2
Oggi h: 12:00 nuvoloso Nuvoloso 22 11 49 1015 10 O/SO 20.3
Oggi h: 11:49 nuvoloso Nuvoloso 22 12 53 1015 10 O/SO 22.2
Oggi h: 11:30 nuvoloso Nuvoloso 23 12 49 1015 10 O/SO 27.8
Oggi h: 11:00 poco_nuvoloso Poco Nuvoloso 23 12 49 1015 10 O/SO 27.8
Oggi h: 10:30 poco_nuvoloso Poco Nuvoloso 22 12 53 1015 10 SO 29.6
Oggi h: 10:00 poco_nuvoloso Poco Nuvoloso 21 13 60 1015 10 O/SO 27.8
Oggi h: 09:30 poco_nuvoloso Poco Nuvoloso 21 14 64 1015 10 O/SO 24
Oggi h: 09:00 poco_nuvoloso Poco Nuvoloso 20 15 72 1015 10 O/SO 25.9
Oggi h: 08:30 poco_nuvoloso Poco Nuvoloso 19 15 77 1015 10 O/SO 27.8
Oggi h: 08:00 sereno Sereno 18 16 88 1015 10 O/SO 22.2
Oggi h: 07:30 sereno Sereno 17 16 93 1015 10 SO 20.3
Oggi h: 06:30 sereno Sereno 15 15 100 1015 10 S/SO 16.7
Oggi h: 06:00 sereno Sereno 15 14 93 1015 10 S 14.8
Oggi h: 05:30 sereno Sereno 14 14 100 1015 10 S 9.3
Oggi h: 05:00 sereno Sereno 15 14 93 1015 10 S/SO 11.1
Oggi h: 04:30 sereno Sereno 15 14 93 1014 10 S/SO 11.1
Oggi h: 04:00 poco_nuvoloso Poco Nuvoloso 14 14 100 1014 10 S/SO 16.7
Oggi h: 03:30 poco_nuvoloso Poco Nuvoloso 15 14 93 1014 10 S/SO 18.5
Oggi h: 03:00 poco_nuvoloso Poco Nuvoloso 14 14 100 1015 10 SO 14.8
Oggi h: 02:30 sereno Sereno 15 15 100 1015 10 S/SO 16.7
Oggi h: 02:00 sereno Sereno 15 15 100 1015 10 S 11.1
Oggi h: 01:30 sereno Sereno 15 14 93 1015 10 S/SO 16.7
Oggi h: 01:00 sereno Sereno 15 15 100 1015 10 S/SO 11.1
Oggi h: 00:30 sereno Sereno 16 15 93 1015 10 S/SO 18.5
Oggi h: 00:00 sereno Sereno 16 15 93 1015 10 S/SO 18.5
Ieri h: 23:30 sereno Sereno 16 15 93 1015 10 S/SO 13
Ieri h: 23:00 sereno Sereno 16 15 93 1015 10 S/SO 13
Ieri h: 22:30 sereno Sereno 16 15 93 1015 10 S/SO 14.8
Ieri h: 22:00 sereno Sereno 16 15 93 1015 10 S/SO 18.5
Ieri h: 21:30 sereno Sereno 16 15 93 1015 10 S/SO 13
Ieri h: 20:30 poco_nuvoloso Poco Nuvoloso 18 16 88 1014 10 S/SO 13
Ieri h: 20:00 poco_nuvoloso Poco Nuvoloso 19 17 88 1015 10 SO 14.8
Ieri h: 19:30 poco_nuvoloso Poco Nuvoloso 18 16 88 1015 10 O/SO 11.1
Ieri h: 19:00 poco_nuvoloso Poco Nuvoloso 18 16 88 1014 10 O/SO 16.7
Ieri h: 18:30 poco_nuvoloso Poco Nuvoloso 19 17 88 1014 10 O 13
Ieri h: 18:00 coperto_pioggia Pioggia Debole 19 17 88 1014 10 O 14.8
Ieri h: 17:30 sereno Sereno 18 17 93 1014 10 O 9.3
Ieri h: 17:00 coperto_pioggia Pioggia Debole 18 17 93 1015 10 O 16.7
Ieri h: 16:38 coperto_pioggia Pioggia Debole 18 17 93 1015 10 O 16.7
Ieri h: 16:30 poco_nuvoloso Poco Nuvoloso 18 17 93 1015 10 O 18.5
Ieri h: 16:00 nuvoloso_piovaschi Debole Rovescio di Pioggia 19 17 88 1015 10 O 20.3
Ieri h: 15:43 nuvoloso_piovaschi Debole Rovescio di Pioggia 20 18 88 1014 10 O 31.5